#timestamp,LO_Frequency,Hit,StdDev 
1659427215.1,286046998.3,N
1659427235.9,286047000.4,N
1659427255.7,286047001.0,N
1659427275.5,286046999.2,N
1659427295.4,286046999.5,N
1659427315.2,286046997.6,N
1659427335.0,286046998.6,N
1659427336.0,286046998.6,N
1659427355.8,286046997.6,N
1659427375.6,286046997.9,N
1659427395.5,286046998.0,N
1659427415.3,286046997.0,N
1659427435.1,286046997.8,N
1659427455.9,286046997.0,N
1659427475.7,286046998.3,N
1659427495.6,286046998.8,N
1659427515.4,286046999.1,N
1659427535.2,286046998.9,N
1659427555.1,286047000.9,N
1659427556.0,286047000.9,N
1659427575.8,286046999.6,N
1659427595.6,286046996.5,N
1659427615.5,286046998.3,N
1659427635.3,286046999.6,N
1659427655.2,286046996.7,N
1659427675.9,286046996.9,N
1659427695.7,286047000.9,N
1659427715.6,286047000.6,N
1659427735.4,286046998.5,N
1659427755.2,286046999.2,N
1659427775.1,286046997.0,N
1659427776.0,286046997.0,N
1659427795.8,286046995.6,Y
1659427815.7,286046994.9,P
1659427835.5,286046998.8,N
1659427855.3,286046999.5,N
1659427875.2,286046997.7,N
1659427895.0,286046997.3,N
1659427895.9,286046997.3,N
1659427915.8,286046999.3,N
1659427935.6,286046999.0,N
1659427955.4,286046998.6,N
1659427975.3,286046999.2,N
1659427995.1,286046999.0,N
1659428015.8,286046998.4,N
1659428035.7,286046996.7,N
1659428055.5,286046996.6,N
1659428075.4,286046997.4,N
1659428095.2,286046998.2,N
1659428115.0,286047000.2,N
1659428115.9,286047000.2,N
1659428135.8,286047000.4,N
1659428155.6,286047000.3,N
1659428175.4,286047002.1,N
1659428195.3,286047004.0,N
1659428215.1,286046998.9,N
1659428235.9,286046996.8,N
1659428255.7,286046997.1,N
1659428275.5,286046996.6,N
1659428295.4,286046996.6,N
1659428315.2,286046998.9,N
1659428335.0,286046996.5,N
1659428335.9,286046996.5,N
1659428355.8,286046998.7,N
1659428375.6,286047003.5,N
1659428395.5,286047003.5,N
1659428415.3,286047004.3,N
1659428435.1,286047004.1,N
1659428455.9,286047000.4,N
1659428475.7,286047002.3,N
1659428495.5,286047002.6,N
1659428515.4,286047001.2,N
1659428535.2,286047001.2,N
1659428555.1,286046998.8,N
1659428556.0,286046998.8,N
1659428575.8,286046999.3,N
1659428595.6,286046998.4,N
1659428615.5,286047002.5,N
1659428635.3,286046999.9,N
1659428655.2,286047000.5,N
1659428675.9,286047004.4,N
1659428695.7,286047001.0,N
1659428715.6,286046998.3,N
1659428735.4,286047000.5,N
1659428755.2,286047001.9,N
1659428775.1,286047000.0,N
1659428776.0,286047000.0,N
1659428795.8,286046999.3,N
1659428815.7,286046999.5,N
1659428835.5,286046999.4,N
1659428855.3,286046996.8,N
1659428875.2,286046996.6,N
1659428895.0,286046997.7,N
1659428895.9,286046997.7,N
1659428915.7,286046993.4,Y
1659428935.6,286046992.5,P
1659428955.4,286046991.7,N
1659428975.3,286046996.1,N
1659428995.1,286046997.8,N
1659428996.0,286046997.8,N
1659429015.8,286046993.4,N
1659429035.7,286046995.7,N
1659429055.5,286046999.5,N
1659429075.3,286047000.4,N
1659429095.2,286046997.6,N
1659429115.0,286046995.0,N
1659429115.9,286046995.0,N
1659429135.8,286046996.7,N
1659429155.6,286046997.3,N
1659429175.4,286046996.6,N
1659429195.3,286046997.2,N
1659429215.1,286046997.3,N
1659429235.8,286046997.7,N
1659429255.7,286046994.9,N
1659429275.5,286046996.5,N
1659429295.4,286046996.6,N
1659429315.2,286046997.6,N
1659429365.1,286046995.2,E
1659429375.9,286046999.4,N
1659429395.7,286046999.8,P
1659429415.6,286047004.3,P
1659429435.4,286047004.4,N
1659429455.2,286047001.3,N
1659429475.1,286047002.4,N
1659429476.0,286047002.4,N
1659429495.8,286047002.5,N
1659429515.7,286047000.3,N
1659429535.5,286047002.2,N
1659429555.3,286047001.4,N
1659429575.2,286047003.9,N
1659429595.0,286047002.4,N
1659429595.9,286047002.4,N
1659429615.7,286047001.4,N
1659429635.6,286047004.4,Y
1659429655.4,286047001.1,P
1659429675.3,286046999.6,N
1659429695.1,286046998.4,N
1659429715.8,286046998.3,N
1659429735.7,286047000.5,N
1659429755.5,286047000.3,N
1659429775.4,286046999.8,N
1659429795.2,286047002.0,N
1659429815.0,286047003.1,N
1659429815.9,286047003.1,N
1659429835.8,286047006.0,Y
1659429855.6,286047001.5,P
1659429875.4,286047002.3,P
1659429895.3,286047000.6,N
1659429915.1,286046998.6,N
1659429935.9,286046996.6,N
1659429955.7,286046999.2,N
1659429975.5,286046999.8,N
1659429995.4,286047003.3,N
1659430015.2,286047002.3,N
1659430035.0,286047001.7,N
1659430035.9,286047001.7,N
1659430055.8,286047001.0,N
1659430075.6,286047001.8,N
1659430095.5,286047006.0,Y
1659430115.3,286047005.2,P
1659430135.1,286047005.2,N
1659430155.9,286047001.6,N
1659430175.7,286047002.0,N
1659430195.6,286047001.5,N
1659430215.4,286047003.5,N
1659430235.2,286047002.9,N
1659430255.1,286047004.0,N
1659430256.0,286047004.0,N
1659430275.8,286047004.4,N
1659430295.6,286047004.0,N
1659430315.5,286046999.4,N
1659430335.3,286047000.7,N
1659430355.2,286046999.6,N
1659430375.9,286046998.2,N
1659430395.7,286046996.6,N
1659430415.6,286046995.0,N
1659430435.4,286046997.3,N
1659430455.2,286046999.6,N
1659430475.1,286047000.9,N
1659430476.0,286047000.9,N
1659430495.8,286047000.5,N
1659430515.7,286047002.0,N
1659430535.5,286047003.7,N
1659430555.3,286047002.4,N
1659430575.2,286047001.0,N
1659430595.0,286046998.6,N
1659430595.9,286046998.6,N
1659430615.7,286046998.2,N
1659430635.6,286047000.0,N
1659430655.4,286047000.5,N
1659430675.3,286046999.7,N
1659430695.1,286047003.5,N
1659430715.8,286047004.4,N
1659430735.7,286047001.9,N
1659430755.5,286046998.8,N
1659430775.3,286047000.2,N
1659430795.2,286047000.7,N
